Theta_e
340 340 340 340 340 340 340 339 338 339 338 338 337 337 337 337 337 337 336 336 336 336 336 335 334 333 332 330 328 326 324 323 321 320 318 317 315 314 312 311 311 312 312 311 310 309 308 308 307 306 305 304 303 301 301 300 300 301 303 305 306 306 308 309 310 308 302 299 299 299 297 297 299 299 299 300 300 299 299 299 299 298 298 298 298
339 339 340 340 340 340 340 339 339 338 338 337 337 337 336 337 337 336 336 336 336 336 335 335 334 333 331 330 328 326 324 323 321 320 318 316 315 313 311 310 311 312 311 310 309 308 307 307 306 305 304 302 302 301 300 300 300 300 300 303 305 305 306 308 308 306 303 299 299 299 298 298 300 299 299 300 299 299 299 299 300 299 298 298 299
339 339 340 339 340 340 339 339 338 338 338 337 337 336 336 337 337 336 335 336 336 335 335 335 333 331 330 329 327 325 323 322 321 319 317 316 315 313 311 309 310 311 310 309 308 307 307 306 305 304 303 302 301 301 300 300 299 299 298 300 303 303 304 305 305 305 303 301 300 300 300 300 300 299 299 300 299 299 299 300 300 300 299 298 299
339 339 339 339 340 340 339 339 338 338 338 337 337 336 336 336 336 336 335 335 335 334 334 334 332 330 329 328 326 325 323 322 320 318 317 316 315 313 311 309 309 310 309 309 308 307 306 305 304 303 302 302 301 301 301 300 300 298 297 298 300 302 302 302 302 302 302 301 300 300 300 300 300 299 299 300 300 299 299 300 300 301 300 299 299
339 339 339 339 339 339 339 338 338 338 337 337 337 336 335 336 336 335 335 335 335 334 333 332 331 329 328 327 326 324 323 322 320 319 317 316 315 313 310 309 309 309 308 308 307 306 305 304 303 302 302 302 302 301 301 301 300 298 296 296 297 298 299 298 297 299 302 302 301 300 300 300 300 300 299 300 300 300 300 300 301 301 300 300 299
339 339 339 339 339 339 339 338 338 337 337 337 336 336 335 335 335 334 334 334 334 334 333 332 330 329 328 327 326 325 323 322 320 319 318 316 314 312 310 309 308 308 308 307 306 305 304 303 302 302 302 302 302 302 301 301 300 298 296 295 296 295 296 296 297 299 301 302 301 301 301 301 301 301 300 299 299 300 300 301 301 301 301 301 300
339 339 340 339 339 339 338 338 338 337 337 336 336 335 334 334 334 334 333 333 333 333 332 331 329 328 328 327 326 325 323 321 320 318 317 316 313 311 309 308 308 308 307 306 305 304 303 303 302 302 302 302 301 301 301 301 301 298 295 294 295 296 297 297 298 300 301 301 301 301 301 301 301 301 300 299 299 300 300 301 301 301 301 301 301
339 339 339 339 339 339 338 338 337 337 337 336 335 335 334 334 333 333 332 332 332 332 332 330 329 327 327 327 325 324 323 322 320 318 316 315 313 310 308 308 307 307 306 305 304 303 303 302 302 302 302 302 302 301 301 301 301 298 295 294 296 297 298 299 300 301 301 301 301 301 301 301 301 301 300 300 301 301 301 300 301 301 301 301 301
339 339 339 339 339 339 338 337 337 336 336 335 334 334 334 333 333 332 332 332 331 331 331 330 328 326 326 325 324 323 323 322 321 319 317 314 312 310 308 307 307 306 306 305 303 302 302 302 302 302 302 302 302 302 301 301 301 299 295 294 297 299 300 301 301 301 301 301 302 301 301 301 301 301 301 301 301 301 300 300 301 302 301 301 301
339 339 339 339 339 338 338 337 336 336 335 335 334 333 333 333 333 332 333 332 331 330 329 328 327 326 325 323 322 322 323 323 322 320 318 316 313 310 308 307 306 306 305 304 303 302 301 302 302 302 302 302 302 302 302 302 302 300 296 295 297 300 301 301 301 301 301 302 302 301 301 302 301 301 301 301 301 301 301 301 302 301 301 302 301
339 339 339 339 339 338 338 337 336 336 335 334 334 333 333 333 333 332 332 331 330 329 327 325 325 325 325 323 321 322 323 323 322 319 317 316 313 309 307 306 306 306 305 304 303 302 302 302 303 302 303 302 302 302 302 301 301 300 296 295 297 299 300 302 302 302 302 302 302 302 302 302 301 301 301 301 301 301 301 301 301 301 301 302 301
339 339 339 338 338 338 337 336 336 335 334 334 333 333 333 333 332 331 331 329 328 327 325 324 324 324 323 322 322 323 324 323 321 319 317 315 312 309 306 306 305 305 305 304 303 302 303 303 303 303 303 302 302 302 301 301 300 298 296 296 298 299 300 301 301 301 302 302 302 301 302 302 301 301 301 301 301 301 301 302 302 302 302 301 301
339 339 339 338 338 338 337 336 335 334 334 334 333 333 333 332 331 330 329 328 326 324 323 323 323 323 322 321 322 323 324 323 321 319 317 314 311 308 306 306 305 305 304 304 303 303 303 304 303 303 303 302 303 303 301 300 299 297 296 298 300 300 300 300 300 299 300 302 302 301 302 301 301 301 301 300 300 301 301 301 301 302 302 302 301
340 339 339 339 338 338 337 336 335 334 334 333 332 332 332 331 330 330 329 326 324 323 322 322 322 323 322 322 322 323 324 324 321 318 316 314 310 307 306 305 305 305 304 303 303 304 304 304 303 303 303 303 303 303 300 299 297 296 297 299 300 300 301 300 300 298 298 300 302 302 301 300 301 301 300 299 299 300 301 301 301 301 301 300 299
340 339 339 339 338 338 337 336 335 334 333 333 332 332 331 330 329 329 327 326 324 323 322 321 322 323 322 322 323 323 323 324 322 318 316 313 309 307 306 306 305 305 304 303 303 304 304 304 303 303 303 303 304 303 299 297 297 296 297 299 300 301 301 301 300 298 297 298 300 301 301 300 299 300 299 298 299 299 299 299 299 299 299 300 300
340 339 339 339 338 338 337 336 335 334 333 333 332 331 331 330 329 328 326 325 324 323 322 322 322 322 321 321 322 322 322 323 322 318 316 312 309 307 306 306 305 305 304 303 303 304 304 303 302 302 303 304 303 301 297 295 296 296 297 298 298 300 301 301 301 300 297 297 299 300 300 299 298 299 299 298 299 299 298 298 299 299 300 301 301
340 339 339 339 338 338 337 336 335 334 333 333 332 331 331 330 329 327 326 324 322 322 321 321 320 321 321 321 320 320 322 323 321 318 316 312 308 307 306 306 305 304 304 304 303 304 304 303 301 302 304 304 302 298 294 293 295 296 296 296 295 299 302 301 301 300 298 297 299 299 299 299 299 299 298 298 299 298 298 300 301 301 301 301 301
340 339 339 339 338 338 337 335 335 334 333 333 332 331 330 330 328 327 325 323 323 322 322 320 319 319 320 320 321 322 322 321 320 318 315 312 309 307 306 306 305 305 304 304 304 304 304 303 301 302 304 303 300 295 292 294 297 297 296 296 296 299 302 302 300 300 299 297 298 299 299 299 299 298 298 298 298 298 298 300 301 301 300 300 301
340 339 339 339 338 337 336 335 334 334 333 333 332 331 330 329 329 328 325 324 323 322 321 320 319 318 318 318 322 324 321 318 318 317 315 312 309 307 306 305 305 305 304 304 304 304 304 303 302 303 304 303 300 296 293 294 296 297 298 299 300 301 302 301 300 300 300 298 298 299 299 299 299 299 298 298 298 298 298 299 300 301 301 300 300
339 339 339 338 338 337 336 335 334 334 333 333 332 331 331 329 328 327 325 325 324 321 320 319 318 318 317 317 320 322 320 318 318 317 315 312 308 307 306 305 305 305 305 304 304 304 303 302 302 303 304 303 302 300 297 295 295 297 300 301 301 301 301 299 298 299 301 300 298 298 299 299 299 299 298 298 298 298 298 299 299 300 301 301 300
339 339 339 338 337 337 336 335 335 334 333 333 332 331 331 330 328 326 325 325 323 321 320 318 316 316 316 315 316 317 318 319 318 316 314 311 309 307 306 306 306 305 305 305 304 304 304 303 303 304 304 303 303 302 300 298 297 299 301 301 301 301 300 298 296 297 300 300 299 298 299 299 299 299 299 299 299 299 299 299 299 300 300 300 301
338 338 338 337 337 336 336 335 335 334 333 333 332 330 330 329 328 326 325 323 322 320 319 318 316 315 314 314 313 313 315 318 319 317 314 311 309 307 306 306 306 306 305 305 305 304 304 303 303 304 303 303 303 303 303 302 301 301 301 302 302 301 299 296 294 296 299 300 299 299 299 300 300 300 300 300 301 300 299 299 300 300 300 300 300
338 338 337 337 336 336 335 335 334 334 333 332 332 331 330 329 327 325 324 322 320 319 317 317 317 315 313 312 311 312 313 315 318 318 314 310 309 308 307 306 306 306 305 305 305 305 304 304 304 304 303 303 303 303 303 303 302 302 302 302 302 302 299 295 293 295 298 299 299 299 300 300 300 300 300 300 301 301 300 300 300 300 300 300 299
337 337 336 336 336 335 335 335 334 334 333 332 331 330 329 328 326 324 321 320 319 317 316 316 316 314 312 311 310 311 311 313 315 317 315 311 309 308 307 306 306 305 305 305 305 305 305 304 304 304 304 303 303 303 303 303 303 303 303 303 302 302 300 297 295 295 297 298 298 299 300 300 300 300 300 300 300 300 300 300 300 300 300 300 299
337 337 336 336 336 335 335 335 334 334 333 332 331 330 329 328 326 323 321 319 318 317 316 316 316 314 312 310 309 309 310 311 313 315 314 312 310 308 307 307 306 305 305 305 305 305 304 305 305 304 304 304 304 304 303 304 304 303 303 303 302 301 301 299 297 296 297 297 298 299 299 300 300 300 300 300 299 299 299 300 300 300 300 300 299
336 336 335 336 336 335 335 335 334 334 333 332 331 330 329 327 325 322 320 319 318 317 316 315 315 314 313 311 310 309 309 310 312 314 313 311 310 309 308 307 307 307 306 305 305 305 304 305 305 304 304 304 304 304 304 304 304 304 303 303 302 301 300 300 299 298 297 296 297 298 299 300 300 299 299 299 299 299 300 300 300 301 301 301 300
335 335 335 336 335 335 335 334 334 334 333 330 329 329 328 326 324 322 319 318 317 316 316 315 314 313 312 311 310 308 308 309 310 312 312 311 309 308 308 307 307 307 306 306 305 305 304 305 305 304 304 304 303 303 304 304 305 304 303 302 302 302 301 300 300 299 297 296 297 297 298 298 298 299 299 299 299 300 300 300 301 301 302 301 300
335 334 334 335 334 334 334 333 333 333 330 327 327 327 326 325 324 321 319 319 318 316 315 313 312 312 312 310 309 308 307 307 309 312 313 312 310 308 307 307 307 307 306 305 305 305 304 304 304 304 304 304 303 303 304 304 305 304 303 303 303 302 301 300 300 299 298 297 297 297 297 298 298 298 299 299 300 301 301 300 300 301 301 301 300
334 334 334 333 332 332 332 332 331 330 327 324 324 324 323 324 323 320 319 321 321 318 316 314 312 312 312 311 310 309 307 308 311 315 316 314 312 310 308 307 307 307 307 306 305 305 304 304 304 303 303 303 303 303 303 303 304 304 303 303 302 302 301 300 300 299 299 297 297 297 297 298 298 299 299 299 300 301 301 300 300 300 301 301 301
333 333 332 332 331 331 331 330 330 328 325 321 320 320 321 322 322 321 320 320 320 319 318 316 314 314 313 312 312 312 312 313 316 317 316 315 313 312 310 309 308 308 307 306 305 304 304 304 304 304 304 304 304 304 303 303 303 303 303 303 302 301 301 300 300 300 300 298 298 298 298 298 298 299 300 300 301 301 301 300 300 300 301 301 301
331 330 330 331 330 330 329 329 327 325 322 320 319 319 318 317 319 320 319 318 317 317 317 316 315 314 315 314 313 312 313 314 316 316 315 314 313 311 310 309 308 308 307 306 304 304 304 304 304 304 304 304 304 304 303 303 303 302 302 302 302 301 301 301 301 301 301 300 299 298 299 299 298 299 300 300 300 300 301 301 300 300 301 301 301
329 328 328 328 328 327 327 326 324 321 320 319 318 317 315 313 313 315 316 316 316 316 316 316 315 315 315 315 313 313 313 313 313 313 312 311 310 309 309 309 309 308 307 305 304 303 303 304 304 304 304 304 304 304 304 304 303 303 302 302 301 301 302 302 302 302 302 301 300 299 299 299 298 298 299 298 297 299 300 301 301 301 301 301 301
329 327 326 326 325 325 325 324 321 319 318 317 316 316 315 312 310 310 312 313 314 314 315 316 316 316 315 314 314 315 315 313 313 312 312 310 309 309 309 309 309 308 306 304 303 303 303 304 304 304 304 304 304 303 304 304 303 303 302 302 301 301 302 302 302 302 302 302 301 300 299 298 297 298 298 297 297 298 299 300 302 302 301 301 301
328 326 325 324 323 322 322 322 319 318 318 317 315 315 315 313 311 309 309 309 310 311 312 313 314 314 314 313 313 314 314 314 313 313 313 312 310 309 308 307 307 306 305 304 303 303 303 304 304 304 303 303 303 303 303 303 302 302 302 301 301 302 301 301 302 302 301 301 301 300 298 297 297 297 297 297 297 298 299 300 301 302 302 301 300
326 324 323 323 322 321 321 320 318 317 317 316 315 314 315 313 311 310 309 308 309 309 309 309 311 311 311 311 312 312 312 313 313 313 312 311 309 307 305 303 302 301 302 303 303 303 303 303 303 303 303 302 302 302 302 302 302 301 301 301 301 302 301 301 301 301 300 300 300 299 298 297 297 296 296 296 297 298 299 301 302 302 302 301 300
323 321 320 320 320 320 319 319 317 316 316 315 314 313 313 311 310 310 309 309 309 308 307 307 308 309 310 310 310 311 311 311 311 310 310 309 308 305 303 301 300 300 300 301 302 303 303 303 303 303 303 302 302 302 302 302 301 301 301 301 301 301 301 300 301 301 300 300 299 299 298 298 297 297 295 295 295 297 298 300 302 301 301 300 300
320 318 317 318 318 318 317 317 316 316 315 313 312 311 310 309 309 309 309 308 308 307 306 306 307 307 307 308 309 309 309 309 309 309 308 307 306 305 303 302 301 301 300 301 301 302 302 302 302 302 302 302 302 302 302 301 301 300 300 300 300 300 300 300 300 300 300 299 299 299 299 299 298 297 296 295 295 296 298 299 300 301 300 299 298
318 317 316 316 316 316 315 315 315 313 312 311 311 310 309 308 308 308 308 308 307 306 305 306 306 306 306 307 307 308 308 307 307 306 305 304 304 303 303 303 303 302 302 302 301 301 301 301 301 302 302 302 302 302 301 301 300 300 300 300 300 300 300 300 300 299 299 299 299 300 300 299 298 298 297 295 295 296 297 298 299 300 300 299 298
316 316 315 315 315 314 313 313 312 311 310 310 310 309 308 307 307 307 307 306 306 305 305 305 305 306 306 306 306 307 306 305 304 303 302 303 303 302 303 303 304 303 303 303 302 302 301 301 301 302 302 302 302 302 301 301 301 300 300 300 299 299 299 299 299 299 299 299 299 299 299 299 298 298 297 295 294 295 296 298 300 300 300 300 299
313 313 313 313 313 313 312 312 311 310 310 309 308 308 307 307 307 307 306 306 305 305 305 305 305 306 307 308 307 307 306 305 304 303 303 302 302 302 302 303 303 303 303 303 302 302 302 302 302 302 303 303 303 302 302 302 301 300 299 299 298 298 298 298 298 298 298 298 298 298 298 298 298 297 296 294 294 295 297 299 300 300 300 300 299
312 312 312 312 312 311 311 310 310 310 309 309 308 308 307 307 307 307 306 306 305 305 305 305 305 306 307 308 308 307 306 304 304 303 303 303 302 302 302 302 303 303 303 303 302 303 303 303 303 303 303 303 302 301 301 301 299 298 298 298 297 297 297 297 297 297 297 296 296 296 296 296 296 296 295 295 295 296 298 299 300 300 300 299 299
311 311 311 311 311 310 310 309 309 309 309 308 308 308 308 307 307 307 306 306 305 305 305 305 305 305 306 307 306 305 305 304 303 303 303 303 303 302 302 303 303 303 303 303 303 303 303 303 302 302 302 301 301 300 299 299 298 297 297 297 297 297 297 296 296 295 294 293 293 293 294 295 295 295 296 296 296 297 299 300 300 300 300 299 299
311 311 311 311 311 310 310 309 309 309 309 308 308 308 308 308 307 307 307 306 305 305 305 304 304 304 304 305 304 304 304 304 303 303 303 303 303 303 303 303 303 303 303 303 303 302 302 302 301 301 300 299 299 299 298 297 296 295 295 295 296 296 295 295 294 293 292 292 293 294 295 296 297 297 297 297 297 298 299 300 300 300 300 299 299
311 311 311 310 310 309 309 309 309 309 309 309 309 308 308 308 307 307 307 306 305 305 305 304 304 304 303 302 303 303 303 304 304 304 304 304 303 303 303 303 302 302 302 302 301 301 301 301 300 300 299 299 298 298 297 296 295 294 294 294 294 293 293 293 293 294 294 295 296 297 297 298 298 298 298 298 298 299 299 300 300 300 300 299 299
310 310 310 310 309 308 308 308 308 308 308 307 307 307 307 308 307 307 307 306 305 305 305 305 305 305 304 303 303 303 302 302 303 303 304 304 303 303 303 303 302 302 301 301 300 300 300 300 299 299 298 298 298 298 298 297 295 294 294 294 293 293 294 294 295 296 296 297 298 298 298 298 298 298 298 299 299 299 300 300 300 300 300 299 299
310 310 310 309 309 308 307 307 307 307 307 307 306 306 307 307 306 306 306 306 305 304 304 305 306 306 306 305 304 303 302 302 302 302 303 304 304 304 303 303 303 302 301 300 299 299 299 299 298 298 298 298 298 298 298 298 297 296 296 295 295 295 295 296 296 296 297 298 299 298 298 298 298 298 299 299 299 300 300 300 300 300 300 299 299
310 310 310 309 308 308 307 307 307 308 308 307 308 307 307 307 306 306 306 306 305 305 305 305 305 305 305 305 304 303 303 303 303 303 304 304 304 304 304 303 302 301 300 299 298 298 298 298 298 297 297 298 298 298 298 298 298 298 297 297 296 296 296 296 296 296 297 298 299 298 298 298 298 298 299 299 299 299 300 300 300 300 300 300 299
311 311 311 311 310 309 308 308 308 309 309 308 308 308 307 307 307 306 305 305 305 305 305 304 304 304 304 304 303 303 303 303 304 304 304 304 304 304 304 303 302 300 299 298 298 298 298 298 297 297 298 298 298 299 299 298 298 298 298 298 298 297 297 297 297 297 297 298 298 298 298 298 298 298 299 299 299 300 300 300 300 300 300 300 299
312 311 311 310 310 310 309 309 308 308 308 308 308 308 307 307 306 306 306 305 304 304 304 303 303 303 303 303 303 303 303 303 303 303 303 303 304 304 304 303 301 300 300 300 300 300 300 299 299 298 299 299 299 299 299 299 299 299 299 298 298 298 298 298 298 297 297 298 298 298 298 298 298 298 299 299 300 300 300 300 300 300 300 299 300
312 312 311 310 309 308 308 308 308 308 308 308 308 308 307 307 307 306 306 305 305 305 305 304 304 304 304 304 303 303 303 303 303 303 303 303 304 303 303 302 301 302 303 303 303 303 302 302 301 301 301 301 301 301 300 300 300 300 300 300 299 299 299 298 298 298 298 298 298 298 298 298 298 298 299 299 300 300 300 300 300 300 299 299 300
312 311 311 311 309 308 308 308 308 308 308 308 308 307 307 307 307 307 306 306 306 305 305 305 305 305 305 304 304 304 304 304 304 304 304 303 303 303 303 304 304 304 305 305 304 304 304 303 303 303 303 302 302 302 302 302 301 301 301 300 300 300 299 299 299 299 299 299 299 299 299 298 298 298 298 299 299 299 300 300 300 300 300 299 299
Wind_Speed
35 37 36 36 39 36 35 39 37 31 29 29 27 25 30 38 38 36 35 34 33 32 31 31 30 29 28 26 25 23 21 20 18 16 15 14 13 12 11 11 13 14 15 16 16 16 15 15 14 13 12 11 10 9 8 8 7 9 11 12 15 14 11 9 6 8 8 7 6 6 7 6 3 1 1 3 5 7 8 9 11 12 12 11 11
35 37 36 36 37 35 34 35 32 30 29 28 27 26 29 38 39 36 36 35 34 33 32 32 31 30 29 27 26 24 22 20 18 17 16 14 13 12 12 12 14 16 17 17 17 16 16 15 15 14 13 12 11 10 9 9 8 8 9 10 13 15 13 10 8 9 9 8 7 6 7 6 3 1 2 3 5 7 8 9 10 11 11 11 10
35 37 37 36 36 34 32 31 30 31 30 28 29 26 28 37 40 36 36 35 35 34 33 33 32 31 30 28 27 25 23 21 19 17 16 14 13 13 13 14 16 17 18 18 18 17 16 16 15 15 14 13 12 11 10 9 8 8 9 10 12 15 15 13 11 10 10 9 8 7 7 5 3 2 2 3 5 7 8 8 9 10 10 11 11
33 36 36 36 36 34 32 32 32 33 31 29 30 27 28 37 40 37 37 36 35 36 34 33 33 31 31 29 28 26 24 22 20 18 16 14 13 13 14 15 16 18 18 19 18 18 17 17 17 16 15 14 13 12 11 10 9 10 10 11 13 14 15 14 13 11 11 10 8 7 6 5 3 2 1 2 4 5 6 8 9 9 10 10 11
33 36 37 36 37 36 34 33 33 34 31 29 31 29 28 36 40 38 37 37 36 36 35 34 33 32 32 31 29 27 25 23 21 19 17 15 14 14 15 16 17 18 19 18 18 18 18 18 18 17 16 16 15 13 11 10 9 10 11 12 13 14 14 13 12 11 11 10 9 7 6 5 3 2 1 2 3 4 5 7 9 10 11 11 11
34 36 36 37 40 38 35 34 34 34 33 30 31 29 28 35 40 38 37 38 37 37 36 36 35 33 33 32 30 28 26 24 22 19 18 16 15 15 16 17 18 18 18 18 18 18 18 18 18 18 17 16 15 14 12 10 10 10 12 14 14 14 13 12 11 10 10 9 9 8 6 5 4 2 1 2 2 3 5 6 7 10 12 13 12
35 35 37 40 40 39 36 34 33 35 35 31 29 28 28 33 37 37 37 37 37 38 38 37 36 34 33 32 30 28 26 24 22 20 18 17 17 17 17 18 18 19 19 19 18 18 18 18 18 18 17 16 15 14 13 11 10 10 13 14 14 13 12 11 10 10 9 9 8 7 6 5 4 3 1 1 1 2 5 6 7 8 11 12 13
36 36 38 39 39 39 38 34 32 35 35 31 29 29 28 29 33 37 37 37 38 39 38 38 37 35 34 33 30 28 26 24 23 21 19 18 18 18 18 19 19 19 19 19 19 19 18 18 18 17 17 15 14 13 12 11 10 12 14 15 14 13 12 11 10 9 9 8 7 7 6 5 4 3 2 1 1 1 4 6 7 8 10 11 11
37 37 38 38 37 39 39 33 31 34 34 31 34 35 30 29 34 37 37 37 38 38 39 39 37 36 35 34 32 30 27 25 23 22 21 20 19 19 20 20 20 20 20 20 19 19 19 18 18 16 15 13 12 11 10 10 10 12 15 16 15 13 12 11 9 9 9 8 8 7 7 6 5 4 3 1 1 2 4 6 6 8 10 10 9
37 37 38 38 36 37 38 32 29 35 36 33 36 39 37 35 36 37 38 38 38 38 39 39 38 37 36 35 33 31 28 26 24 22 21 20 20 21 21 21 21 21 22 21 21 20 20 19 17 15 14 12 11 10 10 10 9 9 13 16 16 14 12 11 9 9 9 8 8 8 7 6 6 4 3 2 1 2 3 5 6 8 9 9 9
36 36 37 36 34 36 37 31 29 37 38 32 34 41 41 39 38 37 37 38 38 39 39 39 38 38 37 37 35 32 29 26 24 22 21 19 20 22 23 23 23 22 22 22 22 22 21 19 17 16 15 13 12 11 10 10 9 9 12 15 14 12 12 11 9 9 9 8 8 9 7 7 6 5 3 3 2 2 3 4 5 7 8 9 10
34 34 33 32 32 34 33 27 27 36 35 28 33 41 41 39 38 37 38 38 37 38 39 39 39 38 38 38 36 33 30 27 25 23 22 20 20 22 23 24 24 23 23 23 23 23 21 20 19 18 17 15 14 12 12 11 10 11 13 14 13 12 11 10 10 10 10 9 9 9 8 7 7 6 4 3 3 3 3 4 4 6 7 8 10
32 31 29 30 32 33 31 26 28 33 31 27 34 41 40 39 39 38 38 37 36 38 39 39 40 39 39 38 36 33 31 28 26 24 22 22 21 22 24 25 24 24 24 24 23 23 22 22 21 20 18 16 15 14 13 13 13 13 15 15 14 13 12 11 11 11 11 10 9 9 9 7 7 6 5 4 3 3 3 4 5 6 7 8 10
30 29 29 31 34 36 33 29 29 32 31 31 37 41 40 39 39 40 39 36 35 38 39 40 40 40 40 38 36 34 32 29 27 25 23 23 23 23 24 24 24 25 24 24 24 24 23 23 23 21 20 18 17 15 15 15 16 17 17 17 15 14 13 12 12 12 13 13 10 9 9 9 7 6 6 5 4 4 5 5 5 7 9 10 11
29 30 31 33 35 36 35 32 32 34 35 34 37 41 40 35 33 37 38 37 38 39 39 40 41 40 40 39 37 36 34 30 27 26 25 24 24 24 24 24 25 24 24 24 24 24 24 24 23 22 22 21 19 17 16 18 19 19 18 17 16 15 14 14 13 13 15 16 13 9 9 11 10 8 8 6 5 5 6 6 7 8 10 11 11
29 29 31 32 34 35 35 34 33 34 36 35 36 39 37 30 28 34 38 36 37 39 40 41 42 41 40 40 39 38 35 31 29 27 26 25 25 25 25 25 25 25 25 25 24 24 24 24 23 23 23 22 19 16 17 18 19 19 18 17 17 17 15 15 14 14 15 17 15 12 11 12 12 11 10 8 7 6 7 7 8 8 9 10 11
28 29 31 33 34 34 34 34 34 34 36 36 36 38 38 32 29 33 36 34 34 37 39 39 39 40 41 41 40 38 35 33 31 29 27 27 27 27 27 26 26 26 26 25 25 25 25 23 22 23 23 21 18 17 18 18 19 19 17 16 17 17 15 14 15 15 15 16 16 13 12 12 12 12 11 10 8 7 7 7 7 6 8 11 10
28 30 32 33 33 33 33 34 34 35 36 36 35 36 38 37 35 36 35 33 35 39 40 36 34 37 41 41 39 38 37 36 33 31 29 29 30 30 29 29 29 27 26 26 25 25 25 22 21 23 23 20 18 18 20 20 19 19 18 16 16 16 14 14 16 16 15 16 16 15 13 13 13 13 12 11 10 9 7 7 6 7 9 11 11
29 30 32 32 31 32 33 34 35 35 35 35 35 35 35 35 37 38 36 33 35 38 38 36 34 35 38 40 40 39 38 37 35 33 31 30 31 32 31 31 30 29 28 27 26 26 25 22 21 22 22 20 18 19 21 21 20 20 19 15 14 14 13 14 17 17 16 16 16 15 14 13 13 13 13 12 12 10 8 7 8 7 9 11 12
29 29 29 30 31 32 33 35 35 36 36 35 36 36 36 35 35 36 36 35 35 33 32 32 34 36 38 39 41 41 39 37 36 34 33 32 32 33 33 32 31 29 28 27 27 27 27 24 23 23 22 21 19 19 21 21 21 21 20 16 14 13 12 14 16 17 16 15 16 17 16 14 13 13 14 13 12 11 9 9 10 9 9 11 12
28 27 27 29 31 33 35 36 37 37 38 37 35 34 36 37 36 35 35 34 32 32 30 27 28 35 39 38 39 39 38 37 37 35 34 33 33 34 34 33 32 30 28 27 27 28 29 27 25 25 24 23 20 20 20 19 20 21 21 17 14 11 10 11 15 17 17 16 16 16 16 15 14 13 13 13 12 12 11 11 12 12 11 11 12
26 26 27 29 32 34 35 37 38 36 36 37 36 33 32 33 33 34 35 32 31 32 30 24 24 31 35 35 36 37 36 36 36 36 35 34 34 35 34 33 32 31 30 28 27 28 29 29 27 26 25 24 22 21 20 19 20 21 20 17 13 10 8 9 13 16 16 15 14 14 15 15 14 13 12 12 11 11 12 13 14 15 14 14 13
27 27 28 29 30 33 35 36 36 34 33 35 36 34 33 32 31 33 34 32 31 31 29 25 24 25 28 30 32 34 35 35 36 37 36 35 35 34 33 32 31 30 31 31 30 29 29 28 26 25 26 25 23 22 22 20 21 21 18 16 15 12 9 9 11 14 14 13 13 14 14 15 14 14 13 12 10 11 13 15 16 16 16 15 15
27 27 28 28 30 32 34 36 35 33 33 35 33 33 35 34 31 31 32 32 31 30 29 28 25 22 23 27 29 30 33 35 36 37 37 36 35 34 32 31 30 29 30 31 30 29 27 26 25 26 26 26 24 23 23 22 22 21 19 18 17 15 13 12 12 13 13 13 14 14 14 15 14 14 13 12 12 14 15 16 16 17 17 16 15
26 26 27 30 33 34 34 35 36 35 36 37 35 34 34 31 29 31 33 33 32 30 30 30 27 24 25 28 29 30 32 34 36 37 36 35 35 34 32 32 30 28 29 30 29 27 24 23 24 25 26 26 24 23 24 24 23 22 21 20 19 18 17 14 12 12 13 13 14 15 15 14 13 14 15 16 16 17 18 17 17 16 16 16 15
25 27 29 31 32 32 31 31 33 35 37 38 38 38 33 26 27 32 33 32 31 29 28 29 27 25 26 27 28 30 32 33 36 38 37 36 36 35 33 32 31 29 28 29 28 25 22 22 23 25 26 26 25 25 25 25 23 23 23 22 21 21 19 15 12 12 13 13 13 14 14 12 13 15 18 18 18 18 18 18 16 14 14 14 14
24 26 30 31 30 30 30 29 30 33 35 35 36 36 31 24 25 29 30 27 25 23 24 26 25 25 25 24 26 31 33 34 35 37 38 39 39 37 36 36 34 31 29 29 28 26 23 21 22 24 26 26 25 25 25 24 23 23 23 23 23 22 20 18 15 13 13 13 12 12 12 13 16 18 18 17 17 17 18 18 15 12 11 12 13
24 24 27 27 27 28 29 29 29 27 28 31 33 33 31 27 25 27 30 31 28 24 23 24 26 29 30 28 25 26 29 34 39 41 42 43 43 42 42 41 39 35 32 31 29 27 24 22 22 24 26 26 24 23 23 22 22 23 24 24 24 23 22 20 19 16 15 14 13 12 13 15 17 16 15 15 16 16 17 16 14 11 11 10 11
23 23 23 22 25 27 26 26 24 20 20 24 25 25 28 28 25 25 31 37 37 33 30 29 30 33 35 34 30 25 26 35 43 45 44 44 44 45 46 45 42 39 35 33 30 26 23 22 23 24 23 23 22 19 19 20 21 23 24 25 25 24 23 22 20 18 17 17 15 14 13 13 14 13 13 15 15 15 15 15 13 12 11 10 10
21 22 22 21 24 27 25 20 18 17 20 23 22 20 22 26 27 28 32 35 37 36 36 36 36 35 36 37 37 34 34 40 43 43 43 44 44 44 44 44 41 38 35 33 30 26 23 20 20 21 21 20 19 18 18 20 21 21 23 25 25 24 24 23 20 18 18 19 16 14 13 13 12 12 13 13 13 12 13 14 13 12 10 9 10
21 22 24 23 25 26 22 19 20 23 27 30 29 27 24 23 25 28 28 29 32 34 35 36 36 36 37 37 37 35 35 38 40 41 43 44 43 43 42 40 38 37 35 33 28 25 23 19 18 20 21 19 18 19 20 22 23 22 21 22 24 25 25 24 22 20 21 21 19 17 16 15 14 14 13 13 12 11 11 12 13 11 9 9 9
22 21 23 23 23 23 23 24 26 27 28 28 28 28 25 22 20 19 19 24 30 32 32 32 32 33 34 35 34 32 31 32 36 40 42 41 41 40 38 37 37 37 36 33 28 24 24 21 18 18 19 17 18 22 22 22 23 22 20 21 24 27 27 25 24 23 24 23 22 21 19 17 17 16 16 15 15 13 11 11 10 8 8 8 8
23 21 21 21 22 24 26 27 26 26 27 27 27 27 26 24 23 20 18 20 24 26 27 27 27 28 30 31 32 32 30 29 30 34 36 35 35 35 35 36 36 35 35 34 27 21 21 21 19 19 19 18 19 24 25 23 22 22 22 23 25 27 27 25 24 25 26 25 23 21 19 19 19 18 17 16 15 14 13 11 8 7 7 7 8
18 19 22 24 24 26 27 26 26 26 27 28 28 27 26 26 26 27 25 21 20 20 20 19 21 25 27 28 28 28 26 24 24 25 28 30 32 34 35 35 34 33 35 34 27 21 21 20 18 18 20 19 20 22 25 25 24 23 24 25 23 20 21 23 24 25 25 25 23 21 20 19 17 16 15 14 13 14 14 12 9 7 7 7 7
12 14 21 24 24 24 24 24 25 26 26 25 24 23 24 26 28 29 29 26 23 22 21 20 21 24 25 25 25 24 22 21 21 22 24 27 31 33 34 32 30 30 32 29 24 24 26 25 23 22 21 19 20 22 24 26 26 26 24 23 21 18 18 21 23 23 23 23 22 21 19 17 16 16 15 13 12 12 12 11 9 8 8 7 7
10 12 17 20 19 19 19 20 22 25 24 22 21 20 21 24 25 25 25 24 23 22 23 23 23 22 21 22 22 21 19 18 19 21 23 26 30 34 34 31 28 28 27 22 19 23 28 28 27 27 22 18 19 22 23 25 25 24 23 21 19 18 18 20 22 21 22 22 22 19 17 16 16 16 15 15 15 14 13 11 10 8 8 8 7
9 11 16 17 17 17 17 18 20 22 22 22 22 22 22 22 23 23 24 24 23 23 24 24 23 21 20 20 20 20 19 18 18 20 21 24 29 32 30 27 24 23 23 20 20 24 26 26 26 25 21 19 20 21 22 23 22 22 24 23 19 18 19 21 22 21 22 23 22 20 19 18 18 17 16 16 16 14 13 13 12 11 10 10 9
8 11 15 16 16 16 17 18 20 22 23 25 25 25 24 24 23 23 24 24 24 24 24 25 25 24 22 22 22 22 21 20 20 21 22 25 29 28 25 25 25 23 21 22 25 27 26 24 25 24 21 21 21 20 20 21 21 22 25 26 23 22 23 24 23 22 23 23 22 21 21 20 19 18 18 17 16 14 14 14 13 11 10 10 10
9 11 14 15 16 17 18 20 21 21 22 23 23 23 24 24 24 23 23 23 23 23 23 24 25 24 25 26 25 25 24 24 24 25 25 27 29 28 26 28 29 27 24 24 27 28 25 23 25 27 25 23 22 20 21 23 23 23 24 25 26 27 26 25 25 24 24 24 22 21 21 21 19 18 18 19 18 17 16 16 15 12 10 9 9
10 12 14 15 17 19 21 23 23 22 22 22 22 24 24 23 23 24 24 24 24 24 24 25 24 25 28 31 30 30 29 29 28 29 29 29 29 28 28 28 29 29 28 26 25 26 25 23 24 27 27 26 24 23 24 26 25 23 24 25 26 26 25 26 26 25 24 24 23 21 22 22 19 18 19 19 19 18 17 16 15 13 12 10 9
13 15 16 16 17 18 19 20 21 23 24 24 24 24 24 22 22 23 24 24 24 25 24 24 24 26 30 33 33 32 31 31 31 32 31 31 31 29 28 28 28 28 28 27 25 26 25 22 22 24 25 25 25 24 24 25 23 23 23 24 24 23 22 24 26 26 25 25 24 22 22 21 20 19 20 20 19 18 17 17 15 13 12 12 11
16 17 17 17 17 17 17 17 17 19 22 22 22 23 22 22 22 22 22 22 23 23 22 22 22 25 28 31 31 30 28 28 30 31 30 30 30 29 28 28 28 27 27 26 25 24 23 23 23 23 23 23 23 22 22 22 22 22 22 22 22 22 21 20 22 24 23 23 23 22 20 20 20 20 20 19 19 18 17 16 15 13 12 12 13
17 18 19 18 17 17 17 18 19 19 19 19 20 21 21 21 21 21 21 20 21 21 21 20 21 22 25 28 28 27 25 25 27 28 27 28 29 29 29 28 27 25 24 24 23 22 22 23 23 22 21 21 21 20 18 18 19 20 21 21 22 23 22 20 19 20 19 19 19 19 18 18 19 20 20 20 20 19 18 16 15 14 14 13 14
15 17 18 18 17 17 17 17 19 20 20 20 20 21 21 20 20 20 20 20 20 20 20 21 21 22 23 25 27 26 24 24 26 27 28 28 29 29 29 27 25 23 22 22 21 22 22 21 21 21 20 19 18 17 15 15 15 16 18 19 19 20 20 19 18 17 16 16 16 15 15 16 18 20 21 21 20 19 18 16 16 15 14 14 14
13 15 17 18 17 15 14 15 17 19 20 20 20 19 19 19 19 19 19 20 20 19 19 20 21 22 22 25 28 27 25 23 24 27 29 29 29 29 27 26 24 22 21 21 21 21 21 21 20 19 18 18 17 16 14 14 14 14 15 16 16 17 17 17 16 16 15 14 13 12 12 13 15 18 20 21 20 19 17 16 15 15 15 14 14
13 14 14 15 15 14 14 14 16 17 17 17 16 15 14 15 17 18 19 20 20 19 19 19 20 21 22 24 27 29 27 24 23 24 26 27 27 26 25 23 21 19 19 20 20 20 20 20 19 18 16 16 16 15 15 15 14 14 14 15 15 15 15 15 15 16 15 14 13 12 10 9 11 14 17 18 17 16 15 14 13 14 14 14 14
12 12 11 12 14 15 14 13 14 14 14 15 15 14 12 12 13 15 17 18 18 18 18 18 19 20 21 23 25 26 26 25 23 23 22 22 23 23 21 20 19 18 18 18 18 17 17 17 16 16 15 14 15 15 16 16 16 16 16 16 15 15 15 16 16 17 16 15 14 12 10 8 8 10 13 15 15 14 13 13 13 13 13 13 13
11 12 12 12 13 14 13 13 14 14 13 13 14 14 12 11 12 12 13 15 16 16 17 18 19 20 20 21 22 23 23 23 22 22 21 21 21 20 19 18 18 18 17 16 15 15 16 16 15 15 15 15 15 15 15 15 16 16 17 17 18 17 17 17 17 17 16 16 15 13 11 9 8 8 10 12 12 12 12 12 13 13 12 12 12
11 12 12 11 12 13 14 14 14 12 11 11 13 13 12 11 10 10 11 12 14 14 15 16 18 19 19 19 20 20 20 21 21 20 19 19 19 18 17 17 17 16 15 14 15 16 16 16 15 14 14 14 14 14 15 15 16 17 18 19 19 19 18 18 18 18 17 16 16 14 12 11 10 9 9 11 11 11 12 13 13 13 13 13 13
12 12 12 12 11 10 11 11 10 10 11 11 11 12 13 12 10 9 10 11 12 13 13 14 16 16 16 16 17 17 18 18 19 18 18 18 18 17 17 16 15 15 14 14 15 15 15 14 14 14 14 14 14 15 16 16 17 18 19 20 20 20 21 21 21 19 18 18 17 16 15 14 13 12 11 12 12 13 13 14 15 14 14 15 15
12 12 12 13 12 10 8 8 8 9 9 9 9 11 12 11 9 9 10 12 12 13 13 13 13 14 14 15 15 16 16 17 17 17 17 16 16 16 15 14 13 13 13 14 14 15 14 14 14 14 14 15 15 15 16 17 17 18 19 19 19 20 22 23 23 23 21 20 19 18 18 17 16 15 14 14 14 15 15 15 16 16 16 15 15
Wind_Direction
198 200 199 199 201 200 199 201 201 199 202 203 200 200 206 210 213 213 211 212 213 212 211 210 209 208 208 207 208 208 208 206 206 207 208 210 213 216 218 216 213 211 209 204 199 197 195 194 193 192 190 187 185 181 180 181 178 187 195 200 208 206 195 195 178 141 150 162 150 151 157 148 139 115 38 3 352 352 352 354 359 2 359 357 2
200 201 199 199 200 199 198 200 198 197 200 201 200 200 204 208 211 211 210 211 213 213 211 209 209 208 207 207 207 208 208 207 207 207 208 210 211 214 214 211 210 208 205 201 197 194 192 193 192 188 186 184 179 173 170 168 163 171 180 186 198 199 190 182 163 145 151 160 155 156 157 153 151 118 57 20 358 354 351 352 0 4 3 4 4
201 201 198 198 198 196 197 197 196 197 198 199 200 200 201 206 209 210 209 210 212 212 211 209 208 207 206 206 207 207 207 208 208 207 209 211 212 213 213 210 209 207 204 201 197 194 192 193 192 188 183 181 179 174 169 165 163 166 170 173 181 185 186 183 168 150 149 154 159 162 158 156 152 117 52 17 1 356 351 350 357 4 4 5 6
198 198 198 197 195 195 196 197 197 198 198 199 200 198 198 203 207 209 209 210 211 211 211 209 207 206 205 204 205 206 206 207 207 207 209 210 212 213 212 209 208 208 205 203 200 196 193 194 193 189 184 182 178 174 169 164 164 166 163 162 167 171 177 182 176 162 152 150 159 163 157 156 152 128 45 12 1 357 354 350 354 1 4 6 6
196 198 198 196 195 195 195 196 197 198 198 198 199 196 195 201 205 207 209 210 211 210 209 208 207 206 205 205 204 204 206 206 206 207 208 208 209 212 212 209 207 207 207 206 203 200 197 197 194 189 186 183 178 173 171 167 165 167 162 156 158 160 163 169 170 163 153 148 152 156 156 158 155 138 55 14 356 353 357 354 355 357 360 4 3
197 197 196 196 197 196 195 196 198 198 198 198 197 194 193 198 202 205 208 209 209 209 208 207 207 207 206 206 205 204 205 205 206 207 206 205 206 208 210 209 206 205 206 207 205 203 202 200 196 192 189 186 182 177 175 172 166 168 167 160 158 157 155 155 154 152 147 143 147 153 158 163 162 157 94 33 9 356 352 352 357 358 357 355 353
196 196 196 197 197 197 196 197 198 199 198 197 194 192 192 195 199 203 206 208 207 207 207 208 207 206 206 206 205 204 204 204 205 205 204 203 204 204 207 208 206 205 205 205 205 206 205 202 199 195 192 191 190 183 178 176 170 170 171 167 162 158 153 148 147 146 145 144 148 156 161 164 170 176 154 42 10 354 351 349 354 357 356 352 347
195 195 196 197 197 198 199 199 198 199 197 194 193 192 191 192 196 200 204 206 207 207 208 208 206 205 206 207 205 203 203 203 203 202 202 203 203 203 205 206 204 204 203 204 206 206 205 203 201 198 196 196 197 191 185 185 178 172 173 172 165 159 153 149 148 149 151 154 158 162 164 169 175 183 199 260 286 344 354 346 343 346 349 350 347
194 195 195 197 197 198 199 197 196 196 194 193 194 194 191 191 196 200 203 206 207 208 209 208 205 203 205 205 204 202 201 203 205 203 201 201 202 203 204 205 203 202 201 202 204 204 203 202 200 200 198 196 199 198 196 199 193 182 178 175 169 162 156 154 155 158 161 166 167 167 172 179 183 189 200 215 276 333 344 337 334 339 341 345 348
193 194 196 197 195 196 198 194 190 191 191 192 193 193 192 194 198 201 204 207 208 207 207 206 204 203 203 203 203 201 201 205 207 206 204 203 202 201 202 203 202 201 200 199 200 201 200 200 199 199 197 195 199 201 200 203 204 198 192 184 176 170 164 160 163 169 172 176 175 177 182 186 185 190 198 203 245 292 322 327 330 338 338 338 341
194 195 198 195 191 194 197 192 189 191 191 191 192 191 193 196 198 200 202 206 208 207 205 203 203 203 202 202 201 200 201 205 204 203 203 204 204 201 201 201 200 199 200 199 198 198 197 197 197 197 195 195 196 197 200 203 200 201 201 193 184 179 174 170 171 177 182 183 181 185 190 188 184 188 201 211 231 270 308 323 328 337 338 336 338
195 197 196 190 187 192 194 188 187 190 189 188 189 190 192 196 198 198 200 204 205 204 203 202 202 202 202 202 201 199 201 203 202 200 201 203 204 202 200 199 198 198 199 199 198 196 194 194 195 195 195 195 194 193 197 201 197 193 195 193 188 186 187 186 183 186 190 189 187 191 195 191 190 193 202 213 231 266 290 306 320 330 333 333 334
194 195 191 186 187 191 190 186 186 187 187 186 187 188 190 194 197 199 200 202 202 200 201 202 202 202 202 201 201 200 201 201 201 199 200 201 202 201 201 200 199 199 200 199 197 195 192 192 193 194 195 196 195 197 199 198 192 189 192 193 191 191 195 198 197 197 198 196 195 198 198 194 195 199 203 210 238 270 282 307 324 324 322 324 327
190 190 187 186 189 191 190 188 186 185 185 185 185 187 189 192 196 199 199 198 198 199 199 200 201 202 202 201 201 201 201 201 199 198 199 200 199 199 200 201 200 201 202 200 199 197 195 194 193 194 195 196 198 201 203 198 191 188 192 194 195 198 201 203 204 205 203 200 202 205 203 199 200 207 210 214 237 265 278 299 312 314 318 324 328
186 187 187 188 190 191 190 188 185 184 184 184 184 186 188 189 193 198 199 197 198 199 199 200 201 202 202 202 201 202 202 200 198 198 199 198 197 198 200 201 201 202 203 202 201 201 200 197 197 197 197 198 201 203 204 199 193 191 194 198 200 203 206 206 207 209 206 203 204 207 207 205 205 209 217 223 242 261 273 288 301 311 319 322 323
186 187 188 189 190 190 189 186 184 182 182 182 184 186 187 187 190 196 199 199 198 198 200 202 201 201 200 200 200 201 201 199 197 197 197 195 194 196 199 201 201 203 204 203 202 203 202 201 201 201 199 200 204 206 204 198 193 192 197 202 206 208 209 210 210 211 211 206 205 208 210 210 209 213 219 227 242 262 277 288 296 303 309 312 315
186 188 189 190 191 190 186 184 182 181 181 183 184 185 186 187 190 194 197 196 195 197 200 201 200 200 200 200 199 200 201 198 196 195 195 194 193 195 198 200 201 203 203 202 203 203 202 204 205 202 200 202 204 203 198 192 190 193 198 204 209 209 211 213 211 212 214 212 212 214 216 216 216 219 223 227 238 258 273 281 292 297 302 310 316
187 189 190 190 190 188 185 183 182 181 183 184 185 185 186 188 192 196 196 194 196 200 201 198 197 199 200 199 198 201 202 198 194 193 193 193 194 196 197 198 198 201 201 201 203 204 204 208 208 202 200 203 204 199 192 189 191 196 198 201 205 206 209 212 212 214 220 219 219 220 222 224 225 226 228 230 238 253 263 273 296 307 306 313 317
189 190 190 189 187 185 183 183 182 182 184 186 186 186 188 190 193 195 196 196 199 201 200 197 196 198 199 198 198 202 203 197 192 193 193 192 194 197 197 196 196 197 198 200 202 204 206 209 208 204 202 204 204 199 195 194 197 199 197 197 201 205 209 213 213 216 222 224 224 225 226 230 231 232 235 237 241 254 266 277 293 300 302 312 317
192 191 188 185 183 182 182 182 183 185 186 187 187 188 190 192 193 194 195 198 200 200 198 196 194 195 198 198 197 200 202 197 192 193 193 191 195 199 198 196 195 195 196 199 200 202 206 208 207 205 205 206 204 200 199 201 202 201 198 197 203 208 214 220 220 219 222 226 228 229 230 234 237 237 241 244 247 256 270 283 293 295 298 307 312
191 189 184 181 180 181 182 184 186 187 187 188 189 190 191 192 191 192 194 195 196 196 194 192 190 193 197 198 196 198 201 198 192 193 194 191 194 200 200 198 197 196 196 199 201 202 205 208 208 205 205 207 206 201 200 203 204 203 202 202 208 212 217 228 228 223 223 227 231 232 233 237 241 240 242 245 248 257 270 285 297 300 300 303 304
187 184 181 179 179 181 183 186 188 188 188 187 187 189 192 192 191 192 193 192 191 191 190 186 185 190 195 197 195 197 201 199 194 194 195 193 195 200 202 201 201 200 199 201 204 206 208 209 208 205 204 206 206 204 204 203 205 208 208 207 211 213 214 227 229 223 222 224 228 231 233 236 240 240 241 242 244 257 272 286 297 301 302 303 301
184 181 179 178 178 180 183 187 188 188 187 187 186 188 191 193 192 192 191 188 186 187 187 184 181 184 188 192 195 197 198 198 196 195 195 194 197 202 203 202 204 204 204 205 207 209 212 212 209 206 205 205 207 207 207 209 212 215 215 215 217 216 215 224 226 220 218 220 224 230 234 236 239 241 243 244 246 259 275 287 294 296 297 299 298
180 179 177 176 178 182 185 188 188 188 188 188 188 189 190 191 191 190 187 184 183 184 186 184 178 175 180 185 190 194 196 196 197 196 195 194 196 201 203 204 207 208 207 209 212 213 214 213 210 207 206 206 208 209 211 215 219 221 221 222 222 221 220 225 224 218 218 223 227 232 235 237 239 241 245 249 254 264 277 286 288 290 294 295 294
179 178 176 178 183 186 187 188 189 189 188 188 190 192 191 189 185 184 184 184 184 184 185 185 179 176 178 180 184 190 194 195 195 196 197 196 196 199 203 206 210 211 210 212 215 217 218 216 211 209 208 208 209 211 215 220 223 224 225 226 225 223 221 220 219 220 224 228 230 235 238 240 242 244 247 253 260 269 281 287 287 288 292 293 293
180 180 182 187 190 189 188 189 190 191 191 191 193 195 194 189 183 182 182 185 187 185 183 183 181 178 178 178 180 185 191 193 194 195 197 198 198 199 202 206 211 213 212 213 216 219 222 221 215 211 210 210 212 215 218 223 225 224 224 225 225 224 221 218 217 223 229 233 235 239 242 243 245 248 252 258 266 275 284 289 287 287 290 292 292
182 183 187 191 192 191 191 193 194 194 191 190 192 195 195 192 187 182 180 184 188 187 184 180 176 175 176 178 179 182 185 189 192 194 196 198 199 200 202 206 210 211 211 213 215 218 222 221 217 212 211 212 215 218 222 225 225 221 220 222 224 224 223 222 223 226 232 236 240 243 245 248 251 254 258 264 271 279 284 286 285 284 286 290 292
187 187 189 191 191 194 197 197 197 196 189 185 186 189 192 194 190 184 181 183 185 186 185 180 176 177 179 180 179 180 183 187 191 194 196 197 198 199 201 204 207 207 208 209 212 216 218 216 211 209 208 210 214 217 221 222 219 216 216 219 222 224 226 226 228 231 235 238 242 247 250 251 253 256 260 266 272 278 282 282 282 282 283 285 289
191 190 190 190 191 195 198 199 197 192 182 178 179 183 188 192 189 187 191 194 194 192 190 187 186 186 184 182 180 178 184 192 196 198 198 197 197 199 200 202 204 206 207 208 209 209 209 206 203 201 202 206 209 210 211 213 213 214 217 220 222 223 225 226 227 231 235 238 242 247 249 251 253 255 259 266 272 276 278 279 282 283 281 276 280
191 192 191 191 194 196 196 194 190 180 169 167 167 173 185 191 191 194 198 200 199 197 195 194 194 192 190 190 190 190 195 199 200 201 200 199 200 201 201 202 203 206 208 208 206 204 200 197 195 197 199 202 205 205 205 208 211 214 218 221 222 222 225 226 225 228 235 240 241 244 248 252 255 256 258 265 271 273 274 279 282 281 276 269 277
191 192 193 194 196 194 188 181 179 176 173 172 172 171 173 180 189 199 201 196 193 195 196 196 197 196 194 194 194 196 201 204 202 201 201 202 203 203 202 202 203 206 208 205 200 199 200 195 192 198 202 202 204 206 209 211 213 215 217 220 222 223 225 226 227 230 237 242 242 244 250 256 259 259 259 265 272 272 272 278 280 276 268 265 275
190 192 194 194 193 187 180 180 180 176 172 173 173 168 161 156 165 185 197 195 193 195 197 199 201 199 197 195 193 194 200 204 202 201 201 202 202 202 201 201 204 207 207 204 198 198 200 198 196 198 200 201 206 210 212 213 214 215 214 216 222 226 227 228 231 234 238 240 241 244 252 260 261 259 260 267 274 276 271 271 272 265 256 257 266
190 190 189 187 184 180 179 181 180 175 172 172 170 169 167 160 152 154 166 180 189 195 200 205 206 202 199 199 199 199 199 201 201 201 201 201 201 200 200 202 205 207 205 201 197 196 198 199 202 203 202 203 209 213 215 216 216 218 218 220 225 231 234 235 235 236 237 239 238 242 252 258 258 258 261 266 272 275 273 268 261 255 252 253 262
191 188 186 185 184 183 183 182 179 177 177 176 172 173 174 168 157 150 151 157 168 180 189 198 201 198 196 198 201 202 201 198 195 195 196 198 199 199 199 200 203 205 204 201 198 196 196 198 203 205 205 206 210 214 217 220 220 223 225 227 229 233 237 239 238 237 238 238 237 240 249 255 256 258 261 265 268 273 275 271 259 251 252 254 264
191 187 187 188 187 186 186 183 178 175 176 176 177 178 175 169 164 161 160 159 160 162 165 173 183 189 192 194 196 199 200 195 188 186 187 191 194 194 192 191 192 197 201 202 201 200 201 204 207 209 209 210 211 215 219 221 224 226 228 230 231 231 234 239 241 239 237 233 233 238 247 252 256 258 259 261 265 269 271 267 257 252 253 253 261
192 185 184 185 187 186 183 177 174 174 174 172 173 173 168 164 163 161 159 157 155 153 155 161 168 177 187 192 191 191 190 184 178 178 180 186 190 190 187 186 187 190 195 199 201 202 206 210 213 213 212 211 211 216 220 222 225 227 227 228 230 229 231 239 242 238 232 228 230 237 245 250 255 259 262 266 269 272 272 266 257 250 247 245 250
185 176 176 180 184 180 173 169 170 172 168 161 158 157 156 158 159 156 152 152 152 150 151 155 157 163 174 182 182 180 177 172 171 174 179 185 190 190 188 187 187 188 192 196 200 203 207 212 214 213 212 213 213 217 221 222 223 226 228 229 229 228 231 239 242 237 229 228 230 236 243 249 254 260 267 270 269 270 271 267 259 250 243 242 249
182 174 172 175 175 168 162 161 164 163 158 154 155 156 157 157 156 153 150 151 152 150 150 155 159 161 167 173 176 176 172 167 166 169 176 184 187 188 190 193 192 192 194 198 203 206 208 211 215 215 215 217 219 220 221 222 223 226 230 232 233 234 235 239 241 236 231 231 234 239 244 250 255 262 267 268 264 263 266 266 259 246 235 239 249
173 171 168 165 161 156 156 155 153 149 148 149 151 152 152 151 150 150 149 149 150 150 153 159 163 166 169 172 174 173 170 168 168 170 175 183 187 188 193 197 198 199 201 203 207 209 208 210 216 219 219 220 221 221 223 227 227 228 231 233 235 236 236 237 238 237 236 236 238 241 246 251 254 259 264 265 262 261 262 261 253 238 225 231 244
143 144 148 151 152 155 157 155 150 145 145 146 146 147 149 150 150 151 151 151 153 157 162 165 166 170 174 175 177 177 174 172 175 179 180 182 187 191 195 197 199 203 205 205 207 210 210 210 215 220 221 223 225 227 231 234 232 231 232 233 234 235 235 236 237 238 239 240 241 243 248 252 253 256 260 260 258 258 259 257 248 233 225 232 242
135 134 138 144 147 148 148 148 148 147 147 147 148 149 151 152 153 152 153 155 158 162 166 168 170 175 179 180 181 180 178 176 179 183 183 184 187 191 194 196 199 203 206 206 208 211 212 211 214 220 224 227 230 232 235 235 232 232 232 232 232 232 232 235 237 238 239 242 245 245 247 249 250 252 255 254 253 255 256 251 241 228 226 234 241
135 132 133 138 142 141 138 139 141 142 143 144 146 147 149 151 153 154 154 156 159 162 164 167 172 178 183 184 182 180 180 180 181 183 185 186 189 192 195 197 200 203 206 207 209 212 213 214 217 222 225 227 229 231 231 230 229 229 229 228 230 230 228 229 235 237 237 240 243 242 242 244 246 248 249 248 248 251 251 241 230 223 224 231 239
131 129 128 131 138 141 142 141 141 140 140 141 142 146 150 152 154 156 156 156 161 164 165 167 172 178 182 184 183 181 182 184 185 187 189 191 193 197 200 201 202 204 205 207 209 211 214 216 219 221 223 225 226 227 226 225 224 224 224 224 227 229 227 226 229 232 230 231 234 237 238 241 244 245 243 241 242 246 244 233 222 222 228 233 240
121 123 125 129 136 140 141 142 143 143 144 145 145 148 152 152 152 156 159 161 165 169 169 171 175 177 179 182 183 183 185 189 192 194 196 198 201 204 205 205 205 204 206 209 211 214 217 219 221 222 223 225 226 224 222 222 220 218 219 221 223 224 223 221 220 221 221 222 228 235 238 239 240 239 238 237 239 240 237 227 219 222 230 235 241
118 122 127 130 134 135 133 135 137 137 138 139 140 142 146 150 152 157 161 164 167 171 173 175 176 177 180 184 187 188 190 193 196 199 202 205 207 208 208 208 206 205 208 212 216 218 220 221 222 223 224 224 223 220 217 216 215 213 214 216 217 216 215 212 212 214 216 219 225 233 238 239 237 235 235 235 236 232 227 221 221 227 233 238 245
124 126 129 130 130 129 127 128 131 130 129 129 130 131 136 143 151 159 164 166 167 170 171 173 176 180 184 188 191 193 195 197 200 204 208 210 212 212 211 210 208 209 213 217 219 221 223 225 226 226 224 222 220 218 215 214 214 213 212 212 213 212 210 210 212 215 216 217 221 227 234 239 238 233 229 227 225 221 217 218 224 232 237 244 251
120 119 119 121 124 126 126 126 128 127 124 125 129 131 131 136 147 158 164 165 166 167 169 172 177 181 186 191 194 197 199 202 206 209 212 214 215 214 212 210 210 212 215 219 221 222 225 227 228 226 222 218 215 213 214 216 217 218 217 216 214 211 210 211 215 216 216 217 220 225 232 240 243 236 225 218 213 211 213 218 225 232 236 242 251
111 111 114 119 121 121 122 124 125 124 122 125 132 135 137 140 145 152 159 162 165 168 171 175 179 183 188 192 196 197 200 203 206 208 210 212 214 213 211 209 209 211 215 217 216 214 215 220 222 220 216 212 210 210 212 216 219 221 221 221 218 214 211 212 215 218 218 219 221 226 232 238 244 244 233 218 208 208 215 220 223 227 232 239 250
103 107 115 121 123 124 127 128 126 123 123 129 136 140 143 145 146 148 153 160 166 169 172 177 183 187 190 193 195 197 200 202 204 206 208 209 209 209 208 207 207 209 211 211 207 205 206 210 213 212 211 209 209 210 213 217 220 222 224 224 222 218 215 215 218 220 221 222 224 228 233 238 241 242 236 223 213 212 219 222 221 225 233 241 251
97 102 108 112 115 122 127 127 123 122 125 129 135 143 149 151 150 151 155 161 167 172 176 181 185 187 189 191 193 195 197 199 201 202 203 204 203 201 201 202 203 204 204 203 202 203 205 205 204 205 206 207 208 211 215 218 222 225 227 228 227 223 219 218 220 221 223 224 227 229 233 238 239 238 235 227 221 220 224 226 227 231 239 246 253
95 97 102 107 110 114 118 117 116 121 126 127 131 141 149 151 150 154 162 166 170 174 178 182 184 185 186 189 194 196 196 197 197 196 198 201 200 197 197 198 200 201 202 201 200 201 201 201 202 203 205 207 209 213 217 221 226 230 234 235 233 229 225 222 221 220 221 223 227 231 234 236 237 236 234 232 230 229 230 232 234 236 239 245 253